Observer details:
160 Castelmartini.  Observers M. Jaeger, E. Prosperi, S. Prosperi.  Measurer E. 
   Prosperi.  0.35-m f/10 Schmidt-Cassegrain + CCD.
595 Farra d'Isonzo.  Observers F. Bressan, G. Ierman, E. Pettarin.  Measurer 
   E. Pettarin.  0.40-m f/5.15 reflector + CCD.
703 Catalina Sky Survey.  Observer R. A. Kowalski.  Measurers B. M. Africano, 
   E. J. Christensen, G. A. Farneth, D. C. Fuls, A. R. Gibbs, A. D. Grauer, H. 
   Groeller, R. A. Kowalski, S. M. Larson, G. J. Leonard, T. A. Pruyne, D. 
   Rankin, R. L. Seaman, F. C. Shelly.  0.68-m Schmidt + 10K CCD.
718 Tooele.  Observer P. Wiggins.  0.35-m f/5.5 Schmidt-Cassegrain + CCD.
958 Observatoire de Dax.  Observer P. Dupouy.  0.32-m f/4.1 Schmidt-Cassegrain 
   + CCD.
A17 Guidestar Observatory, Weinheim.  Observers M. Emmerich, S. Melchert.  
    0.36-m f/6 Schmidt-Cassegrain + CCD.
A44 Altschwendt.  Observer W. Ries.  0.45-m f/4.5 reflector + CCD.
F51 Pan-STARRS 1, Haleakala.  Observers J. Bulger, K. Chambers, T. Lowe, E. 
   Magnier, A. Schultz, M. Willman.  Measurers S. Chastel, M. Huber, Y. 
   Ramanjooloo, R. Wainscoat, R. Weryk.  1.8-m Ritchey-Chretien + CCD.
G34 Oberfrauendorf.  Observer T. Felber.  0.35-m f/6.3 Schmidt-Cassegrain + CCD.
H21 Astronomical Research Observatory, Westfield.  Observer R. Holmes.  
    Measurers S. Foglia, L. Buzzi, T. Linder, R. Holmes.  0.76-m f/3.0 
   astrograph + CCD.
I52 Steward Observatory, Mt. Lemmon Station.  Observer H. Groeller.  Measurers 
   B. M. Africano, E. J. Christensen, G. A. Farneth, D. C. Fuls, A. R. Gibbs, 
   A. D. Grauer, H. Groeller, R. A. Kowalski, S. M. Larson, G. J. Leonard, T. 
   A. Pruyne, D. Rankin, R. L. Seaman, F. C. Shelly.  1.0-m reflector + CCD.
I93 St Pardon de Conques.  Observer F. Losse.  0.40-m f/3.7 reflector + CCD.
J69 North Observatory, Clanfield.  Observer D. Briggs.  0.41-m f/4.5 Newtonian 
   reflector + CCD.
J95 Great Shefford.  Observer P. Birtwhistle.  0.41-m f/6.3 Schmidt-Cassegrain 
   + CCD.
K74 Muensterschwarzach Observatory, Schwarzach.  Observer C. Gerhard.  0.30-m 
   f/4.6 Newtonian reflector + CCD.
K88 GINOP-KHK, Piszkesteto.  Observer K. Sarneczky.  0.60-m Schmidt + CCD.
L01 Visnjan Observatory, Tican.  Observers K. Korlevic, F. Valentine.  Measurer 
   K. Korlevic.  1.0-m f/2.9 reflector + CCD.
Z80 Northolt Branch Observatory.  Observer G. Wells.  Measurers G. Wells, D. 
   Bamberger.  0.25-m f/8.0 Ritchey-Chretien + CCD.
Z99 Clixby Observatory, Cleethorpes.  Observer A. Mickleburgh.  0.36-m f/8 
   Schmidt-Cassegrain + CCD.

Orbital elements:
2019 ST                                                  Earth MOID = 0.0108 AU
Epoch 2019 Apr. 27.0 TT = JDT 2458600.5                 Veres
M 286.99178              (2000.0)            P               Q
n   0.45797891     Peri.  194.55374     +0.97654749     -0.21482552
a   1.6668854      Node   177.70153     +0.21525605     +0.97555274
e   0.3964348      Incl.   20.91589     -0.00445257     +0.04633408
P   2.15           H   24.5           G   0.15           U   6
Residuals in seconds of arc
190919 703  1.5-  1.0+    190919 595  0.3-  0.3+    190919 160  0.2+  0.2-
190919 703  0.6+  1.3-    190919 595  0.2+  0.1+    190919 160  0.3-  0.2-
190919 703  0.9+  1.1-    190919 595  0.6+  0.1+    190919 160  0.1+  0.7+
190919 703  0.3-  0.2-    190919 G34  0.9+  0.4-    190919 160  0.6-  0.5+
190919 I52  0.4+  0.3-    190919 J69  0.0   0.0     190919 160  0.6-  0.6+
190919 I52  0.1-  0.1+    190919 G34  1.0+  0.6-    190919 958  0.7+  0.8-
190919 I52  0.2-  0.1+    190919 J69  0.1-  0.2+    190919 958  1.0+  1.3-
190919 I52  0.0   0.0     190919 G34  0.1+  0.3+    190919 A44  0.4+  0.2-
190919 718 (1.2+  1.6-)   190919 J69  0.1+  0.1+    190919 958  1.1+  1.4-
190919 718  0.3-  0.1+    190919 G34  0.8+  0.6-    190919 A44  0.1+  0.2-
190919 718 (1.7-  0.1+)   190919 G34  0.2-  0.6+    190919 A44  0.1+  0.3+
190919 718  0.1-  0.2+    190919 J69  0.2+  0.1+    190919 958  1.0+  1.5-
190919 718  0.2-  0.2+    190919 J69  0.1+  0.2+    190919 A44  0.9+  0.7-
190919 I52  0.1+  0.3-    190919 K88  0.2-  0.3+    190919 958  0.9+  1.2-
190919 I52  0.1-  0.1-    190919 K88  0.4+  0.3-    190919 958 (0.6+  1.7-)
190919 I52  0.1+  0.3-    190919 K88  0.1-  0.0     190919 I93  0.3+  0.1-
190919 I52  0.1+  0.3-    190919 K88  0.3-  0.5+    190919 I93  0.1+  0.1-
190919 F51  0.2-  0.2+    190919 K88  0.1-  0.0     190919 I93  0.0   0.1-
190919 F51  0.1+  0.1-    190919 J69  0.2-  0.0     190919 Z80  0.2-  0.0
190919 A17  0.1-  0.4+    190919 J69  0.2+  0.0     190919 Z80  0.0   0.2-
190919 A17  0.2+  0.2+    190919 J69  0.0   0.1+    190919 Z80  0.1+  0.1-
190919 A17  0.3+  0.3+    190919 J69  0.3-  0.1+    190919 L01  0.4-  0.1+
190919 A17  0.3-  0.0     190919 J69  0.2-  0.0     190919 L01  0.4-  0.1+
190919 A17  0.2-  0.4+    190919 J95  0.1-  0.1+    190919 L01  0.2-  0.4+
190919 K74  0.3-  0.3+    190919 J95  0.2-  0.3+    190919 L01  0.5-  0.1+
190919 K74  0.1-  0.3+    190919 J95  0.0   0.2+    190920 H21  0.2-  0.3-
190919 K74  0.0   0.4+    190919 J95  0.4-  0.4+    190920 H21  0.2-  0.3-
190919 K74  0.3-  0.5+    190919 Z99  0.7+  0.9-    190920 H21  0.4-  0.0
190919 K74  0.1-  0.4+    190919 Z99  0.4+  1.1-    190920 H21  0.3-  0.1+
190919 K74  0.2-  0.6+    190919 Z99  0.5+  0.9-    190920 H21  0.3-  0.1-
190919 595  0.5-  0.4+    190919 160  0.1+  0.0     190920 H21  0.4-  0.2+

Ephemeris:
2019 ST                  a,e,i = 1.67, 0.40, 21                  q = 1.0061
Date    TT    R. A. (2000) Decl.     Delta      r    Elong.  Phase     V
2019 08 21    19 39 01.4 +51 44 54   0.2240  1.1058   109.2    59.8    23.6
...
2019 09 05    19 51 37.8 +53 52 39   0.1175  1.0510   108.1    65.8    22.3
...
2019 09 13    20 36 18.8 +55 15 04   0.05936 1.0297   111.6    65.4    20.7
...
2019 09 19    00 02 35.7 +44 52 23   0.01912 1.0179   133.1    46.1    17.7
2019 09 20    01 21 26.0 +30 04 21   0.01514 1.0164   141.3    38.1    17.0
2019 09 21    02 36 29.6 +06 42 45   0.01429 1.0149   137.9    41.5    16.9
...
2019 09 27    05 37 26.8 -43 41 50   0.04888 1.0083    95.4    81.9    20.8
...
2019 10 05    06 20 35.6 -49 02 58   0.1065  1.0059    90.0    83.9    22.6
...
2019 10 20    06 39 53.3 -50 55 34   0.2100  1.0212    90.9    77.2    23.9

A. U. Tomatic                (C) Copyright 2019 MPC           M.P.E.C. 2019-S23




More information about the Iaude mailing list